Sisseton, SD

11:11 PM CDT on April 23, 2017 (GMT -0500)
Sisseton

Weather History for K8D3 - February, 2013

Change the Weather History Date:

Wednesday, February 27, 2013

  Actual Average Record
Temperature  
Mean Temperature 21 °F 23 °F  
Max Temperature 28 °F 31 °F 63 °F (2016)
Min Temperature 13 °F 14 °F -17 °F (1962)
Degree Days  
Heating Degree Days 44 42  
Month to date heating degree days 1387 1271  
Since 1 July heating degree days 6339 6217  
Cooling Degree Days 0 0  
Month to date cooling degree days 0 0  
Year to date cooling degree days 0 0  
Moisture  
Dew Point 18 °F    
Average Humidity 87    
Maximum Humidity 96    
Minimum Humidity 78    
Precipitation  
Precipitation 0.00 in 0.03 in 0.98 in (1958)
Month to date precipitation 1.58 0.41  
Year to date precipitation 2.38 0.84  
Snow  
Snow 0.00 in - - ()
Month to date snowfall 20.5  
Since 1 July snowfall 36.7  
Snow Depth 19.00 in    
Sea Level Pressure  
Sea Level Pressure 30.18 in    
Wind  
Wind Speed 18 mph (NNW)    
Max Wind Speed 29 mph    
Max Gust Speed 33 mph    
T = Trace of Precipitation, MM = Missing Value Source: NWS Daily Summary

Daily Weather History Graph

Daily Weather History Graph

Search for Another Location

Airport or City:

Trip Planner

Search our weather history database for the weather conditions in past years. The results will help you decide how hot, cold, wet, or windy it might be!

Date:

Astronomy

Feb. 27, 2013 Rise Set
Actual Time 7:09 AM CST 6:12 PM CST
Civil Twilight 6:39 AM CST 6:42 PM CST
Nautical Twilight 6:05 AM CST 7:16 PM CST
Astronomical Twilight 5:30 AM CST 7:51 PM CST
Moon 8:45 PM CST (2/27) 7:37 AM CST (2/27)
Length of Visible Light 12h 02m
Length of Day
11h 02m
Waning Gibbous, 96% of the Moon is Illuminated
Feb 27
Waning Gibbous
Mar 4
Last Quarter
Mar 11
New
Mar 19
First Quarter
Mar 27
Full

Hourly Weather History & Observations

Time (CST) Temp. Windchill Dew Point Humidity Pressure Visibility Wind Dir Wind Speed Gust Speed Precip Events Conditions
12:56 AM 12.9 °F -1.6 °F 10.0 °F 88% 30.14 in - NNW 12.7 mph - N/A   Unknown
1:56 AM 16.0 °F 1.1 °F 12.9 °F 88% 30.13 in - NNW 15.0 mph - N/A   Unknown
2:56 AM 16.0 °F 2.3 °F 14.0 °F 92% 30.13 in - NNW 12.7 mph - N/A   Unknown
3:56 AM 18.0 °F 3.6 °F 15.1 °F 88% 30.12 in - NNW 15.0 mph - N/A   Unknown
4:56 AM 18.0 °F 4.8 °F 16.0 °F 92% 30.13 in - NNW 12.7 mph - N/A   Unknown
5:56 AM 18.0 °F 2.6 °F 15.1 °F 88% 30.14 in - NNW 17.3 mph - N/A   Unknown
6:56 AM 17.1 °F 1.5 °F 14.0 °F 88% 30.17 in - NNW 17.3 mph - N/A   Unknown
7:56 AM 16.0 °F 1.1 °F 14.0 °F 92% 30.18 in - NNW 15.0 mph - N/A   Unknown
8:56 AM 18.0 °F 2.6 °F 15.1 °F 88% 30.19 in - NNW 17.3 mph - N/A   Unknown
9:56 AM 19.9 °F 5.7 °F 17.1 °F 89% 30.19 in - NNW 16.1 mph - N/A   Unknown
10:56 AM 19.9 °F 4.8 °F 17.1 °F 89% 30.19 in - NNW 18.4 mph - N/A   Unknown
11:56 AM 21.9 °F 6.5 °F 17.1 °F 82% 30.20 in - North 20.7 mph - N/A   Unknown
12:56 PM 23.0 °F 8.7 °F 19.0 °F 85% 30.19 in - NNW 18.4 mph - N/A   Unknown
1:56 PM 24.1 °F 8.0 °F 19.0 °F 81% 30.18 in - North 25.3 mph - N/A   Unknown
2:56 PM 26.1 °F 11.6 °F 21.0 °F 81% 30.17 in - NNW 21.9 mph - N/A   Unknown
3:56 PM 27.0 °F 12.8 °F 21.9 °F 81% 30.17 in - North 21.9 mph - N/A   Unknown
4:56 PM 28.0 °F 14.6 °F 23.0 °F 81% 30.17 in - North 20.7 mph - N/A   Unknown
5:56 PM 27.0 °F 12.5 °F 23.0 °F 85% 30.19 in - North 23.0 mph - N/A   Unknown
6:56 PM 27.0 °F 13.2 °F 23.0 °F 85% 30.21 in - North 20.7 mph - N/A   Unknown
7:56 PM 25.0 °F 9.9 °F 21.9 °F 88% 30.23 in - North 23.0 mph - N/A   Unknown
8:56 PM 24.1 °F 9.8 °F 21.0 °F 88% 30.24 in - North 19.6 mph - N/A   Unknown
9:56 PM 21.9 °F 7.8 °F 19.0 °F 89% 30.24 in - NNW 17.3 mph - N/A   Unknown
10:56 PM 19.9 °F 5.7 °F 17.1 °F 89% 30.24 in - NNW 16.1 mph - N/A   Unknown
11:56 PM 19.0 °F 4.0 °F 16.0 °F 88% 30.25 in - NNW 17.3 mph - N/A   Unknown